TimeEST,TemperatureF,Dew PointF,Humidity,Sea Level PressureIn,VisibilityMPH,Wind Direction,Wind SpeedMPH,Gust SpeedMPH,PrecipitationIn,Events,Conditions,WindDirDegrees,DateUTC
12:15 AM,26.6,24.8,93,30.24,10.0,Calm,Calm,-,N/A,,Clear,0,2012-11-22 05:15:00
12:35 AM,24.8,24.8,100,30.24,10.0,Calm,Calm,-,N/A,,Clear,0,2012-11-22 05:35:00
12:55 AM,26.6,24.8,93,30.24,10.0,Calm,Calm,-,N/A,,Clear,0,2012-11-22 05:55:00
1:15 AM,24.8,24.8,100,30.24,10.0,Calm,Calm,-,N/A,,Clear,0,2012-11-22 06:15:00
1:35 AM,24.8,24.8,100,30.24,10.0,Calm,Calm,-,N/A,,Clear,0,2012-11-22 06:35:00
1:55 AM,24.8,24.8,100,30.25,10.0,Calm,Calm,-,N/A,,Clear,0,2012-11-22 06:55:00
2:15 AM,24.8,24.8,100,30.25,10.0,Calm,Calm,-,N/A,,Clear,0,2012-11-22 07:15:00
2:35 AM,24.8,24.8,100,30.25,10.0,Calm,Calm,-,N/A,,Clear,0,2012-11-22 07:35:00
2:55 AM,24.8,24.8,100,30.24,10.0,Calm,Calm,-,N/A,,Clear,0,2012-11-22 07:55:00
3:15 AM,24.8,24.8,100,30.24,10.0,Calm,Calm,-,N/A,,Clear,0,2012-11-22 08:15:00
3:35 AM,24.8,23.0,93,30.23,10.0,Calm,Calm,-,N/A,,Clear,0,2012-11-22 08:35:00
3:55 AM,24.8,24.8,100,30.24,10.0,Calm,Calm,-,N/A,,Clear,0,2012-11-22 08:55:00
4:15 AM,24.8,24.8,100,30.24,10.0,Calm,Calm,-,N/A,,Clear,0,2012-11-22 09:15:00
4:35 AM,23.0,23.0,100,30.25,10.0,Calm,Calm,-,N/A,,Clear,0,2012-11-22 09:35:00
4:55 AM,24.8,24.8,100,30.25,10.0,Calm,Calm,-,N/A,,Clear,0,2012-11-22 09:55:00
5:15 AM,23.0,23.0,100,30.25,10.0,Calm,Calm,-,N/A,,Clear,0,2012-11-22 10:15:00
5:35 AM,23.0,23.0,100,30.24,10.0,Calm,Calm,-,N/A,,Clear,0,2012-11-22 10:35:00
7:45 AM,26.6,24.8,93,30.27,10.0,Calm,Calm,-,N/A,,Clear,0,2012-11-22 12:45:00
8:45 AM,33.8,30.2,87,30.28,10.0,Calm,Calm,-,N/A,,Clear,0,2012-11-22 13:45:00
9:45 AM,42.8,35.6,76,30.28,10.0,Calm,Calm,-,N/A,,Clear,0,2012-11-22 14:45:00
11:45 AM,51.8,37.4,58,30.25,10.0,Calm,Calm,-,N/A,,Clear,0,2012-11-22 16:45:00
12:45 PM,53.6,37.4,54,30.22,10.0,Calm,Calm,-,N/A,,Clear,0,2012-11-22 17:45:00
1:45 PM,55.4,37.4,51,30.20,10.0,Calm,Calm,-,N/A,,Clear,0,2012-11-22 18:45:00
2:45 PM,55.4,35.6,47,30.18,10.0,Calm,Calm,-,N/A,,Clear,0,2012-11-22 19:45:00
3:45 PM,55.4,33.8,44,30.19,10.0,Calm,Calm,-,N/A,,Clear,0,2012-11-22 20:45:00
4:45 PM,44.6,33.8,66,30.18,10.0,Calm,Calm,-,N/A,,Clear,0,2012-11-22 21:45:00
5:45 PM,41.0,33.8,76,30.19,10.0,WNW,3.5,-,N/A,,Clear,300,2012-11-22 22:45:00
6:45 PM,35.6,33.8,93,30.19,10.0,WNW,3.5,-,N/A,,Clear,300,2012-11-22 23:45:00
7:45 PM,35.6,33.8,93,30.18,10.0,Calm,Calm,-,N/A,,Clear,0,2012-11-23 00:45:00
8:45 PM,35.6,33.8,93,30.18,10.0,Calm,Calm,-,N/A,,Clear,0,2012-11-23 01:45:00
9:45 PM,32.0,30.2,93,30.17,10.0,Calm,Calm,-,N/A,,Clear,0,2012-11-23 02:45:00
9:55 PM,30.2,30.2,100,30.16,10.0,Calm,Calm,-,N/A,,Clear,0,2012-11-23 02:55:00
10:15 PM,30.2,30.2,100,30.16,10.0,Calm,Calm,-,N/A,,Clear,0,2012-11-23 03:15:00
10:35 PM,30.2,30.2,100,30.16,7.0,Calm,Calm,-,N/A,,Clear,0,2012-11-23 03:35:00
10:55 PM,30.2,28.4,93,30.15,10.0,Calm,Calm,-,N/A,,Clear,0,2012-11-23 03:55:00
11:15 PM,28.4,28.4,100,30.15,10.0,Calm,Calm,-,N/A,,Clear,0,2012-11-23 04:15:00
11:35 PM,30.2,28.4,93,30.15,10.0,Calm,Calm,-,N/A,,Clear,0,2012-11-23 04:35:00
11:55 PM,28.4,28.4,100,30.15,10.0,Calm,Calm,-,N/A,,Clear,0,2012-11-23 04:55:00